STARLINK-33794, 63820

Orbit data source: Space-Track

STARLINK-33794, 63820 is a payload satellite owned by SpaceX/Seattle (US) in LEO that was launched on Sun, 04 May 2025 UTC via an FALCON 9 launch vehicle from the Air Force Eastern Test Range (AFETR). Payload-class satellites include a variety of spacecraft equipped with specific instruments for various scientific and technological missions. These include communications satellites like Starlink; space stations such as the ISS; scientific satellites like the Hubble; Earth observation satellites from companies like Planet Labs, Umbra, and HawkEye 360; GPS; miniature CubeSats for education and research; and military/defense satellites.

Loading next visibility...
Identifier
63820, 2025-092S
Orbit
LEO
Country
Flag of USUS
Related business
Manufacturer
SpaceX/Seattle
Mission
Operational Commercial Communications
Bus & Motor
STARLINK V2MO, Unknown motor
Mass
575 kg wet, ~530 kg dry
Launch date (UTC)
2025-05-04 (6 months ago)
Launch vehicle
FALCON 9
Launch site
Air Force Eastern Test Range (AFETR)
Object type
Payload
Rocket body
Debris
Shape & HBR
Box + 2 Pan, 17.7 m
Radar Cross Section
36.964 m², Large (>1 m²)

Expand to show TLE details & history
Last TLE update: 10 hours ago

TLE from 10 hours ago
0 STARLINK-33794
1 63820U 25092S   25309.92056083  .00037559  00000-0  13670-2 0  9997
2 63820  42.9996 151.7096 0001630 274.5571  85.5095 15.27591130 29681
Epoch: 2025-11-05T22:05Z
TLE epoch observation values (Epoch: 2025-11-05T22:05:36.455Z)
Latitude
0.00001°
Longitude
134.92141°
Altitude
482.704 km
Speed
7.626 km/s
True Right ascension
10h 06m 50s
True Declination
0° 00' 00"
Sunlit
Object was in daylight at epoch
Visualization orbit readout
Latitude
Unknown
Longitude
Unknown
Altitude
Unknown
Speed
Unknown
Apparent Right ascension
Unknown
Apparent Declination
Unknown
Sunlit
N/A
Visualization observer readout
Local Sidereal Time
04:28:39
Azimuth
Unknown
Elevation
Unknown
Doppler factor
Unknown
Orbital elements
Apogee altitude
486.08 km
Perigee altitude
483.842 km
Semi-major axis
6,863.098 km
Eccentricity
0.00016
Inclination
42.9996°
RAAN
151.7096°
Arg. of periapsis
274.5571°
True anomaly
85.52812°
Mean anomaly
85.5095°
Eccentric anomaly
85.51881°
Mean motion
3.81736 °/min
Orbital period
94.31 mins
BSTAR
0.001367
Loading maneuver chart data...
Computing Atmospheric mass density...
Loading historical data...
Loading historical data...
Loading historical data...
Loading historical data...
Loading historical data...
Loading historical data...
Loading historical data...

Documentation

Showing up to 5 results
|